Tracking 27428 objects as of 31-May-2023
HD Live streaming from Space Station
objects crossing your sky now

BEESAT-4

Track BEESAT-4 now!
10-day predictions
BEESAT-4 is classified as:


NORAD ID: 41619
Int'l Code: 2016-040W
Perigee: 400.4 km
Apogee: 404.4 km
Inclination: 97.2 °
Period: 92.5 minutes
Semi major axis: 6773 km
RCS: Unknown
Launch date: June 22, 2016
Source: Germany (GER)
Launch site: SRIHARIKOTA (SRI)

Uplink (MHz):
Downlink (MHz): 435.950
Beacon (MHz): 435.950
Mode: 4800bps GMSK CW
Call sign: DP0BEH
Status: Inactive

Your satellite tracking list
Your tracking list is empty




NASA's NSSDC Master Catalog

Two Line Element Set (TLE):
1 41619U 16040W   23151.10679633  .00069487  00000-0  94454-3 0  9992
2 41619  97.1596 200.5721 0002918 270.4346  89.6575 15.57366266374217
Source of the keplerian elements: AFSPC